Location: ????????
(56.1167°N, 38.6333°E)
Time: 20:46:07
(UTC+00:00)

UNK - Pass Details

Date: 18 November 2025
Orbit: 655 x 672 km, 98.4° (Epoch: 14 December)

Event Time Altitude Azimuth Distance (km) Brightness Sun altitude
Exits shadow 15:19:17 - 14° (NNE) 2,910 6.8 -17.2°
Reaches altitude 10° 15:21:14 10° 11° (NNE) 2,120 6.1 -17.4°
Maximum altitude 15:25:49 63° 292° (WNW) 756 4.2 -18.1°
Drops below altitude 10° 15:30:21 10° 212° (SSW) 2,103 6.8 -18.7°
Sets 15:32:35 0° 209° (SSW) 3,012 7.6 -19.0°
